Simultaneous Nadir Overpasses (SNOs) Predictions

Prediction of SNOs between GOES-16 and METOP-C Satellite Orbit:

Table of predicted SNOs for the next 14.0 days since TLE Epoch: 6/2/2025
Index Date Time (GOES-16) GOES-16 Lat,Lon METOP-C Lat,Lon Distance(km) Time Diff (sec)
1 06/04/2025 16:20:49 0.04,-103.82 -0.15,-102.85 110.27 80
2 06/06/2025 04:42:33 -0.04,-104.59 -0.68,-107.49 329.87 80
3 06/07/2025 04:19:16 -0.04,-105.11 0.52,-102.51 295.96 80
4 06/08/2025 16:40:51 0.03,-105.95 0.31,-107.11 132.96 80
5 06/09/2025 16:17:35 0.03,-106.47 -0.95,-102.15 492.66 80
6 06/11/2025 04:36:38 -0.02,-107.24 0.07,-106.78 51.93 80
7 06/12/2025 16:58:13 0.02,-108.07 0.75,-111.38 377.42 80
8 06/13/2025 16:34:56 0.01,-108.59 -0.46,-106.41 247.91 80
9 06/15/2025 04:56:40 -0.01,-109.35 -0.36,-111.05 192.93 80
10 06/16/2025 04:33:22 -0.00,-109.87 0.86,-106.08 432.48 80
